AirNav   Phillips 66 Aviation Fuel
 
 381 users online  

0NJ9 Jersey Turnpike New Brunswick Helistop
New Brunswick, New Jersey, USA

GOING TO NEW BRUNSWICK?


FAA INFORMATION EFFECTIVE 01 FEBRUARY 2018

Location

FAA Identifier: 0NJ9
Lat/Long: 40-28-38.3780N / 074-24-28.5410W
40-28.639633N / 074-24.475683W
40.4773272 / -74.4079281
(estimated)
Elevation: 70 ft. / 21 m (estimated)
Variation: 12W (1985)
From city: 2 miles S of NEW BRUNSWICK, NJ
Time zone: UTC -5 (UTC -4 during Daylight Saving Time)
Zip code: 08816

Heliport Operations

Heliport use: Private use. Permission required prior to landing
Activation date: 07/1970
Control tower: no
ARTCC: NEW YORK CENTER
FSS: MILLVILLE FLIGHT SERVICE STATION
Attendance: UNATNDD
Wind indicator: no
Segmented circle: no

Heliport Communications

WX AWOS-3 at LDJ (11 nm NE): 124.025 (908-862-7383)
WX ASOS at SMQ (15 nm NW): 120.6 (908-722-2139)
WX ASOS at EWR (17 nm NE): PHONE 973-621-2892
WX AWOS-3 at MMU (19 nm N): PHONE 973-290-0135

Nearby radio navigation aids

VOR radial/distance  VOR name  Freq  Var
COLr322/15.1COLTS NECK VOR/DME115.4011W
SBJr123/16.5SOLBERG VOR/DME112.9010W
RBVr024/17.0ROBBINSVILLE VORTAC113.8010W
CRIr262/24.8CANARSIE VOR/DME112.3011W
ARDr070/26.5YARDLEY VOR/DME108.2010W
BWZr147/27.0BROADWAY VOR/DME114.2011W
TEBr226/27.3TETERBORO VOR/DME108.4011W
GXUr029/29.4MC GUIRE VORTAC110.6012W
JFKr264/30.5KENNEDY VOR/DME115.9012W
LGAr245/30.7LA GUARDIA VOR/DME113.1012W
SAXr182/35.9SPARTA VORTAC115.7011W
PNEr059/(36.3)NORTH PHILADELPHIA VOR112.0010W
STWr157/37.5STILLWATER VOR/DME109.6011W
CYNr012/39.6COYLE VORTAC113.4010W

 
NDB name  Hdg/Dist  Freq  Var  ID
CHATHAM189/15.825413WCAT -.-. .- -
BRIDGE269/24.641412WOGY --- --. -.--
LAKEHURST004/26.239611WNEL -. . .-..

Heliport Services

Airframe service: NONE
Powerplant service: NONE

Runway Information

Helipad H1

Dimensions: 85 x 85 ft. / 26 x 26 m
Surface: asphalt, in fair condition
Latitude: 40-28.639633N
Longitude: 074-24.475683W
Elevation: 70.0 ft.
Traffic pattern: leftleft
Markings: none, in fair condition

Heliport Ownership and Management from official FAA records

Ownership: Privately-owned
Owner: NJ TURNPIKE AUTHORITY
NJ TPKE AUTH, PO BOX 1121
NEW BRUNSWICK, NJ 08903
Phone 908-247-0900
Manager: ROBERT F. DALE
NJ TPKE AUTH, PO BOX 1121
NEW BRUNSWICK, NJ 08903
Phone 908-247-0900
DIRECTOR OF OPERATIONS.

Additional Remarks

A52-H1 UNLGTD,UNMRKD BLDGS,TREES AND LGT POLES AND LGTD AND MRKD RDO TWR VCNTY OF PAD.

Instrument Procedures

There are no published instrument procedures at 0NJ9.

Some nearby airports with instrument procedures:

47N - Central Jersey Regional Airport (9 nm W)
3N6 - Old Bridge Airport (9 nm S)
KLDJ - Linden Airport (11 nm NE)
39N - Princeton Airport (12 nm W)
KSMQ - Somerset Airport (15 nm NW)
N51 - Solberg-Hunterdon Airport (16 nm NW)
KEWR - Newark Liberty International Airport (17 nm NE)
N87 - Trenton-Robbinsville Airport (18 nm SW)
KMMU - Morristown Municipal Airport (19 nm N)
 
Loc | Ops | Rwys | IFR | FBO | Links
Com | Nav | Svcs | Stats | Notes

AirNav Hotels Sweepstakes
 
Area around 0NJ9 (Jersey Turnpike New Brunswick Helistop)
 
Road maps at: MapQuest Bing Google
 
Aerial photo
No photo
 
Sectional chart

 
Airport distance calculator
Flying to Jersey Turnpike New Brunswick Helistop? Find the distance to fly.

From to 0NJ9

Sunrise and sunset
Times for 24-Feb-2018
 Local
(UTC-5)
 Zulu
(UTC)
Morning civil twilight06:1211:12
Sunrise06:4011:40
Sunset17:4222:42
Evening civil twilight18:0923:09

Current date and time
Zulu (UTC)  24-Feb-2018 07:59:11
Local (UTC-5)  24-Feb-2018 02:59:11
 
METAR
KLDJ 
11nm NE 
240735Z AUTO 28013G17KT 7SM OVC006 06/05 A3018 RMK AO2 T00570047
KSMQ 
14nm NW 
ASOS 120.60 908-722-2139
240753Z AUTO VRB03KT 6SM BR OVC009 06/06 A3016 RMK AO2 SLP215 T00560056
KEWR 
17nm NE 
240751Z 25007KT 6SM BR OVC008 06/05 A3017 RMK AO2 SLP214 T00610050
KMMU 
18nm N 
240735Z AUTO 24005KT 10SM BKN010 OVC014 05/05 A3017 RMK AO2
KTTN 
22nm SW 
ASOS 133.70 609-538-8690
240753Z AUTO 27005KT 6SM BR OVC004 07/06 A3018 RMK AO2 SLP214 T00670056
TAF
KEWR 
17nm NE 
240550Z 2406/2512 25009KT 5SM BR BKN006 FM241000 28007KT P6SM BKN015 FM241300 32006KT P6SM FEW015 OVC080 FM241700 35005KT P6SM OVC080 FM242000 01004KT 5SM -DZ BR BKN025 OVC050 FM250200 04009KT 4SM -DZ BR BKN012 OVC035 FM250600 07011KT 2SM -RA BR OVC008
NOTAMs
Click for the latest NOTAMs
NOTAMs are issued by the DoD/FAA and will open in a separate window not controlled by AirNav.

 

 
 

Would you like to see your business listed on this page?

 If your business provides an interesting product or service to pilots, flight crews, aircraft, or users of the Jersey Turnpike New Brunswick Helistop, you should consider listing it here.  To start the listing process, click on the button below
 
Add a business
 

Other Pages about Jersey Turnpike New Brunswick Helistop

Update a link
 
Copyright © AirNav, LLC. All rights reserved. Privacy Policy  Contact